Weather History for Puerto Plata, Dominican Republic

Change the Weather History Date:

Sunday, October 30, 2011

  Actual Average Record
Temperature  
Mean Temperature 82 °F -  
Max Temperature 90 °F 84 °F 91 °F (2011)
Min Temperature 73 °F 71 °F 71 °F (2000)
Cooling Degree Days 16    
Growing Degree Days 32 (Base 50)    
Moisture  
Dew Point 77 °F    
Average Humidity 80    
Maximum Humidity 100    
Minimum Humidity 62    
Precipitation  
Precipitation 0.00 in - - ()
Sea Level Pressure  
Sea Level Pressure 29.96 in    
Wind  
Wind Speed 5 mph ()    
Max Wind Speed 18 mph    
Max Gust Speed -    
Visibility 7.4 miles    
Events      
Averages and records for this station are not official NWS values.
T = Trace of Precipitation, MM = Missing Value Source: Averaged Metar Reports

Daily Weather History Graph

Daily Weather History Graph

Search for Another Location

Airport:

Trip Planner

Search our weather history database for the weather conditions in past years. The results will help you decide how hot, cold, wet, or windy it might be!

Date:

Astronomy

Oct. 30, 2011 Rise Set
Actual Time 6:42 AM AST 6:09 PM AST
Civil Twilight 6:19 AM AST 6:31 PM AST
Nautical Twilight 5:53 AM AST 6:57 PM AST
Astronomical Twilight 5:27 AM AST 7:23 PM AST
Moon 10:36 AM AST (10/30) 9:55 PM AST (10/30)
Length of Visible Light 12h 11m
Length of Day
11h 26m
Waxing Crescent, 20% of the Moon is Illuminated
Oct 30
Waxing Crescent
Nov 2
First Quarter
Nov 10
Full
Nov 18
Last Quarter
Nov 25
New

Hourly Weather History & Observations

Time (AST) Temp. Heat Index Dew Point Humidity Pressure Visibility Wind Dir Wind Speed Gust Speed Precip Events Conditions
2:00 AM 77 °F - 76 °F 95% 29.96 in 10 mi Calm Calm - -   Scattered Clouds
2:00 AM 77.0 °F - 75.2 °F 94% 29.95 in 6.2 mi Calm Calm - N/A   Partly Cloudy
5:00 AM 76 °F - 74 °F 93% 29.97 in 10 mi Calm Calm - -   Scattered Clouds
5:00 AM 75.2 °F - 75.2 °F 100% 29.95 in 6.2 mi Calm Calm - N/A   Partly Cloudy
8:00 AM 77 °F - 74 °F 87% 29.97 in 10 mi Calm Calm - -   Scattered Clouds
8:00 AM 77.0 °F - 73.4 °F 89% 29.95 in 6.2 mi Calm Calm - N/A   Partly Cloudy
10:00 AM 84.2 °F 94.1 °F 77.0 °F 79% 30.01 in 6.2 mi ESE 10.4 mph - N/A   Partly Cloudy
11:00 AM 88 °F - 78 °F 65% 30.01 in 10 mi ESE 8.9 mph - -   Scattered Clouds
11:00 AM 87.8 °F 102.5 °F 78.8 °F 75% 30.01 in 6.2 mi ESE 10.4 mph - N/A   Partly Cloudy
12:00 PM 89.6 °F 104.7 °F 78.8 °F 70% 29.98 in 6.2 mi East 6.9 mph - N/A   Partly Cloudy
1:00 PM 91.4 °F 105.1 °F 77.0 °F 63% 29.95 in 6.2 mi East 13.8 mph - N/A   Partly Cloudy
2:00 PM 90 °F - 79 °F 62% 29.94 in 10 mi East 17.9 mph - -   Scattered Clouds
2:00 PM 89.6 °F 104.7 °F 78.8 °F 70% 29.92 in 6.2 mi East 17.3 mph - N/A   Partly Cloudy
3:00 PM 89.6 °F 104.7 °F 78.8 °F 70% 29.92 in 6.2 mi East 15.0 mph - N/A   Partly Cloudy
4:00 PM 87.8 °F 104.9 °F 80.6 °F 79% 29.92 in 6.2 mi East 11.5 mph - N/A   Partly Cloudy
5:00 PM 87.8 °F 102.5 °F 78.8 °F 75% 29.92 in 6.2 mi East 17.3 mph - N/A   Partly Cloudy
6:00 PM 86.0 °F 99.3 °F 78.8 °F 79% 29.92 in 6.2 mi East 11.5 mph - N/A   Scattered Clouds
7:00 PM 82.4 °F 89.5 °F 75.2 °F 79% 29.92 in 6.2 mi East 11.5 mph - N/A   Partly Cloudy
8:00 PM 81 °F - 76 °F 80% 29.96 in 10 mi East 8.9 mph - -   Scattered Clouds
8:00 PM 80.6 °F 86.2 °F 75.2 °F 84% 29.95 in 6.2 mi East 9.2 mph - N/A   Partly Cloudy
11:00 PM 79 °F - 75 °F 83% 30.01 in 10 mi Calm Calm - -   Scattered Clouds
11:00 PM 78.8 °F - 75.2 °F 89% 30.01 in 6.2 mi Calm Calm - N/A   Partly Cloudy